Home > Time Zones > World Clock > Weather > U.S.A. > Hilo > Past weeks

Flag for U.S.A. Weather past 2 weeks in Hilo, Hawaii, U.S.A.

67 °F


Feels Like: 67 °F
Forecast: 70 / 80 °F
Wind: 7 mph from West

Location: Hilo International Airport

Current Time: Nov 30, 2015 at 6:02:22 AM

Latest Report: Nov 30, 2015 at 4:53 AM

Visibility: 10 mi

Pressure: 30.07 "Hg

Humidity: 90%

Dew point: 64 °F

Location of HiloLocation

Historic Weather in Hilo — Graph


Hilo temperature yesterday

Maximum temperature yesterday: 82 °F (at 4:10 PM)
Minimum temperature yesterday: 70 °F (at 5:53 AM)
Average temperature yesterday: 75 °F

Past Weeks' High & Low Weather Summary

High87 °F (Nov 22, 11:53 AM)100% (Nov 28, 4:10 AM)30.12 "Hg (Nov 28, 4:10 AM)
Low66 °F (Nov 30, 3:02 AM)56% (Nov 15, 9:53 AM)29.76 "Hg (Nov 22, 2:53 PM)
Average75 °F84%29.97 "Hg
* Reported Nov 15 4:53 AM — Nov 30 4:53 AM, Hilo, Weather by CustomWeather, © 2015

Note: Actual official high and low records may vary slightly from our data, if they occured in-between our weather recording intervals... More about our weather records


Hilo weather history for previous 24 hours

Time TempWeatherWind HumidityBarometerVisibility
4:53 AM
Mon, Nov 30
67 °FClear.7 mph90%30.07 "Hg10 mi
3:53 AM68 °FOvercast.7 mph90%30.07 "Hg10 mi
3:24 AM68 °FMostly cloudy.9 mph88%30.08 "Hg10 mi
3:13 AM68 °FLight rain. Overcast.9 mph88%30.08 "Hg9 mi
3:02 AM66 °FHeavy rain. Fog.5 mph94%30.09 "Hg2 mi
2:53 AM68 °FLight rain. Mostly cloudy.6 mph87%30.08 "Hg8 mi
1:53 AM69 °FMostly cloudy.5 mph79%30.08 "Hg10 mi
12:53 AM69 °FPassing clouds.3 mph81%30.10 "Hg10 mi
11:53 PM
Sun, Nov 29
70 °FMostly cloudy.6 mph81%30.10 "Hg10 mi
10:53 PM70 °FClear.5 mph84%30.11 "Hg10 mi
9:53 PM70 °FPassing clouds.6 mph87%30.11 "Hg10 mi
8:53 PM72 °FPassing clouds.3 mph84%30.11 "Hg10 mi
7:53 PM72 °FPassing clouds.3 mph84%30.10 "Hg10 mi
6:53 PM73 °FClear.No wind79%30.08 "Hg10 mi
5:53 PM74 °FPassing clouds.6 mph76%30.06 "Hg10 mi
4:53 PM76 °FSunny.3 mph74%30.04 "Hg10 mi
4:32 PM77 °FScattered clouds.6 mph69%30.04 "Hg10 mi
4:10 PM82 °FPartly sunny.6 mph62%30.03 "Hg10 mi
2:53 PM79 °FScattered clouds.5 mph67%30.02 "Hg10 mi
1:53 PM82 °FPassing clouds.6 mph60%30.03 "Hg10 mi
11:53 AM82 °FPassing clouds.14 mph65%30.07 "Hg10 mi
11:24 AM81 °FBroken clouds.9 mph70%30.09 "Hg10 mi
11:07 AM81 °FMostly cloudy.10 mph70%30.10 "Hg10 mi
10:53 AM82 °FBroken clouds.5 mph72%30.10 "Hg10 mi
10:14 AM75 °FLight rain. Partly sunny.3 mph83%30.12 "Hg7 mi
9:53 AM78 °FPartly sunny.8 mph76%30.11 "Hg10 mi
9:00 AM73 °FMostly cloudy.3 mph89%30.12 "Hg10 mi
8:36 AM73 °FRain. Partly sunny.5 mph89%30.11 "Hg7 mi
7:53 AM72 °FLight rain. Fog.5 mph91%30.09 "Hg5 mi
7:44 AM72 °FHeavy rain. Fog.No wind88%30.10 "Hg1 mi
6:53 AM71 °FPartly sunny.5 mph90%30.08 "Hg10 mi
Weather by CustomWeather, © 2015

See weather overviewHow to use our weather pages